CAPE
2 1 1 0 0 0 0 0 0 0 1 1 1 1 1 1 0 0 0 0 0 0 0 0 0 0 0 0 0 0 0 0 0 0 0 0 2 203 175 232 217 279 273 291 129
1 0 0 0 0 0 0 0 0 0 1 1 1 2 1 0 0 0 0 0 0 0 0 0 0 0 0 0 0 0 0 0 0 0 0 0 0 155 193 209 224 370 325 253 119
1 1 0 0 0 0 0 0 0 0 1 1 2 1 1 0 0 0 0 0 0 0 0 0 0 0 0 0 0 0 0 0 0 0 0 0 0 0 71 219 278 338 334 247 162
0 0 0 0 0 0 0 0 0 0 0 0 3 3 0 0 0 0 0 0 0 0 0 0 0 0 0 0 0 0 0 0 0 0 0 0 0 0 0 0 154 292 437 269 131
0 0 0 0 0 0 0 0 0 0 0 0 1 1 0 0 0 0 0 0 0 0 0 0 0 0 0 0 0 0 0 0 0 0 0 0 0 0 0 3 211 357 441 277 134
0 0 0 0 0 0 0 0 0 0 0 0 1 1 0 0 0 0 0 0 0 0 0 0 0 0 0 0 0 0 0 0 0 0 0 0 0 0 0 1 180 503 320 271 141
0 0 0 0 0 0 0 0 0 0 0 0 2 1 0 0 0 0 0 0 0 0 0 0 0 0 0 0 0 0 0 0 0 0 0 0 0 0 0 0 74 422 447 247 169
0 0 1 0 0 0 0 0 0 0 0 0 3 2 0 0 0 0 0 0 0 0 0 0 0 0 0 0 0 0 0 0 0 0 0 0 0 0 0 25 76 289 446 269 176
0 0 2 2 0 0 0 0 0 1 0 1 1 0 0 0 0 0 0 0 0 0 0 0 0 0 0 0 0 0 0 0 0 0 0 0 0 0 0 0 37 426 466 304 223
0 0 1 0 0 0 0 0 0 0 2 1 2 0 0 0 0 0 0 0 0 0 0 0 0 0 0 0 0 0 0 0 0 0 0 0 0 0 0 0 7 462 511 346 318
0 0 0 0 0 0 0 0 0 0 0 0 0 0 0 0 0 0 0 0 0 0 0 0 0 0 0 0 0 0 0 0 0 0 0 0 0 0 0 0 47 309 713 631 603
1 1 0 0 0 0 0 0 0 0 0 0 0 0 0 0 0 0 0 0 0 0 0 0 0 0 0 0 0 0 0 0 0 0 0 0 0 0 0 0 76 291 642 843 854
0 2 0 0 0 0 0 0 0 0 1 0 0 0 0 0 0 0 0 0 0 0 0 0 0 0 0 0 0 0 0 0 0 0 0 0 0 0 0 0 0 23 318 822 985
0 1 0 0 0 0 0 0 0 0 0 0 0 0 0 0 0 0 0 0 0 0 0 0 0 0 0 0 0 0 0 0 0 0 0 0 0 0 0 0 0 0 151 627 1144
0 1 0 0 0 0 0 0 0 1 0 0 0 0 0 0 0 0 0 0 0 0 0 0 0 0 0 0 0 0 0 0 0 0 0 0 0 0 0 0 0 0 262 838 1161
0 0 0 0 0 0 0 0 1 4 0 0 0 0 0 0 0 0 0 0 0 0 0 0 0 0 0 0 0 0 0 0 0 0 0 0 0 0 0 0 0 0 67 561 1150
0 0 0 0 0 0 0 0 2 0 0 0 0 0 0 0 0 0 0 0 0 0 0 0 0 0 0 0 0 0 0 0 0 0 0 0 0 0 0 0 0 0 0 123 804
0 0 0 0 0 0 0 2 0 0 0 0 0 3 1 4 0 0 0 0 0 0 0 0 0 0 0 0 0 0 0 0 0 0 0 0 0 0 0 0 0 0 0 42 287
0 0 0 0 0 0 10 0 0 0 0 3 0 1 0 1 1 0 0 0 0 0 0 0 0 0 0 0 0 0 0 0 0 0 0 0 0 0 0 0 0 0 0 0 0
0 0 0 0 0 0 0 0 0 0 0 0 0 4 1 1 1 0 0 0 0 0 0 0 0 0 0 0 0 0 0 0 0 0 0 0 0 0 0 0 0 0 0 0 0
0 0 0 0 0 0 0 0 0 0 0 0 0 1 2 2 2 1 1 0 1 0 0 0 0 1 0 0 0 0 0 0 0 0 0 0 0 0 0 0 0 0 0 0 0
0 0 0 0 0 0 0 0 0 0 0 0 0 0 0 1 0 2 1 0 0 0 1 0 0 0 1 0 0 0 0 0 0 0 0 0 0 0 0 0 0 0 0 0 0
0 0 0 0 0 0 0 0 0 0 0 0 0 0 0 0 2 0 0 0 0 0 0 0 0 0 0 0 0 0 0 0 0 0 0 0 0 0 0 0 0 0 0 0 0
0 0 0 0 0 0 0 0 0 0 0 0 0 0 0 0 0 0 0 0 0 0 0 0 1 0 0 0 0 0 0 0 0 0 0 0 0 0 0 0 0 0 0 0 0
0 0 0 0 0 0 0 0 0 0 0 0 0 0 0 0 0 0 0 0 0 0 0 0 0 0 0 0 0 0 0 0 0 0 0 0 0 0 0 0 0 0 0 0 0
0 0 0 0 0 0 0 0 0 0 0 0 0 0 0 0 0 0 0 0 0 0 0 0 0 0 0 0 0 0 0 0 0 0 0 0 0 0 0 0 0 0 0 0 0
2 3 1 0 0 0 0 0 0 0 0 0 0 0 0 0 0 0 0 0 0 0 0 0 0 0 0 0 0 0 0 0 0 0 0 0 0 0 0 0 0 0 0 0 0
CIN
-1 -0 -0 -0 -0 -0 -0 -0 -0 -0 -0 -0 -0 -0 -0 -0 -0 -0 -0 -0 -0 -0 -0 -0 -0 -0 -0 -0 -0 -0 -0 -0 -0 -0 -0 -0 -63 -146 -176 -173 -183 -194 -169 -237 -455
-1 -0 -0 -0 -0 -0 -0 -0 -0 -0 -0 -0 -0 -0 -0 -0 -0 -0 -0 -0 -0 -0 -0 -0 -0 -0 -0 -0 -0 -0 -0 -0 -0 -0 -0 -0 -0 -117 -136 -159 -217 -230 -297 -392 -483
-0 -0 -0 -0 -0 -0 -0 -0 -0 -0 -0 -0 -0 -0 -0 -0 -0 -0 -0 -0 -0 -0 -0 -0 -0 -0 -0 -0 -0 -0 -0 -0 -0 -0 -0 -0 -0 -0 -130 -130 -156 -171 -269 -408 -439
-1 -0 -0 -0 -0 -0 -0 -0 -0 -0 -0 -0 -0 -0 -0 -0 -0 -0 -0 -0 -0 -0 -0 -0 -0 -0 -0 -0 -0 -0 -0 -0 -0 -0 -0 -0 -0 -0 -0 -87 -165 -155 -226 -397 -452
-0 -0 -0 -0 -0 -0 -0 -0 -0 -0 -0 -0 -0 -1 -0 -0 -0 -0 -0 -0 -0 -0 -0 -0 -0 -0 -0 -0 -0 -0 -0 -0 -0 -0 -0 -0 -0 -0 -0 -99 -188 -175 -270 -380 -435
-0 -0 -0 -0 -0 -0 -0 -0 -0 -0 -0 -0 -0 -1 -0 -0 -0 -0 -0 -0 -0 -0 -0 -0 -0 -0 -0 -0 -0 -0 -0 -0 -0 -0 -0 -0 -0 -0 -0 -55 -181 -217 -294 -343 -389
-0 -0 -0 -0 -0 -0 -0 -0 -0 -0 -0 -0 -0 -0 -0 -0 -0 -0 -0 -0 -0 -0 -0 -0 -0 -0 -0 -0 -0 -0 -0 -0 -0 -0 -0 -0 -0 -0 -0 -97 -176 -172 -231 -312 -328
-0 -0 -0 -0 -0 -0 -0 -0 -0 -0 -0 -0 -0 -0 -0 -0 -0 -0 -0 -0 -0 -0 -0 -0 -0 -0 -0 -0 -0 -0 -0 -0 -0 -0 -0 -0 -0 -0 -0 -124 -143 -144 -161 -255 -333
-0 -0 -0 -0 -0 -0 -0 -0 -0 -0 -0 -1 -0 -0 -0 -0 -0 -0 -0 -0 -0 -0 -0 -0 -0 -0 -0 -0 -0 -0 -0 -0 -0 -0 -0 -0 -0 -0 -0 -0 -96 -123 -123 -194 -251
-0 -0 -0 -0 -0 -0 -0 -0 -0 -0 -1 -1 -1 -0 -0 -0 -0 -0 -0 -0 -0 -0 -0 -0 -0 -0 -0 -0 -0 -0 -0 -0 -0 -0 -0 -0 -0 -0 -0 -0 -84 -92 -145 -159 -195
-0 -0 -0 -0 -0 -0 -0 -0 -0 -0 -0 -0 -0 -0 -0 -0 -0 -0 -0 -0 -0 -0 -0 -0 -0 -0 -0 -0 -0 -0 -0 -0 -0 -0 -0 -0 -0 -0 -0 -0 -48 -68 -96 -148 -168
-0 -0 -0 -0 -0 -0 -0 -0 -0 -0 -0 -0 -0 -0 -0 -0 -0 -0 -0 -0 -0 -0 -0 -0 -0 -0 -0 -0 -0 -0 -0 -0 -0 -0 -0 -0 -0 -0 -0 -0 -41 -48 -66 -86 -107
-0 -0 -0 -0 -0 -0 -0 -0 -0 -0 -0 -0 -0 -0 -0 -0 -0 -0 -0 -0 -0 -0 -0 -0 -0 -0 -0 -0 -0 -0 -0 -0 -0 -0 -0 -0 -0 -0 -0 -0 -0 -35 -65 -70 -75
-0 -0 -0 -0 -0 -0 -0 -0 -0 -0 -0 -0 -0 -0 -0 -0 -0 -0 -0 -0 -0 -0 -0 -0 -0 -0 -0 -0 -0 -0 -0 -0 -0 -0 -0 -0 -0 -0 -0 -0 -0 -0 -97 -87 -52
-0 -0 -0 -0 -0 -0 -0 -0 -0 -0 -0 -0 -0 -0 -0 -0 -0 -0 -0 -0 -0 -0 -0 -0 -0 -0 -0 -0 -0 -0 -0 -0 -0 -0 -0 -0 -0 -0 -0 -0 -0 -0 -101 -99 -84
-0 -0 -0 -0 -0 -0 -0 -0 -0 -2 -0 -0 -0 -0 -0 -0 -0 -0 -0 -0 -0 -0 -0 -0 -0 -0 -0 -0 -0 -0 -0 -0 -0 -0 -0 -0 -0 -0 -0 -0 -0 -0 -56 -99 -52
-0 -0 -0 -0 -0 -0 -0 -0 -2 -0 -0 -0 -0 -0 -0 -0 -0 -0 -0 -0 -0 -0 -0 -0 -0 -0 -0 -0 -0 -0 -0 -0 -0 -0 -0 -0 -0 -0 -0 -0 -0 -0 -0 -143 -45
-0 -0 -0 -0 -0 -0 -0 -4 -0 -0 -0 -0 -0 -1 -0 -0 -0 -0 -0 -0 -0 -0 -0 -0 -0 -0 -0 -0 -0 -0 -0 -0 -0 -0 -0 -0 -0 -0 -0 -0 -0 -0 -0 -193 -151
-0 -0 -0 -0 -0 -0 -2 -0 -0 -0 -0 -1 -2 -0 -0 -0 -0 -0 -0 -0 -0 -0 -0 -0 -0 -0 -0 -0 -0 -0 -0 -0 -0 -0 -0 -0 -0 -0 -0 -0 -0 -0 -0 -0 -0
-0 -0 -0 -0 -0 -0 -0 -0 -0 -0 -0 -0 -0 -1 -1 -0 -0 -0 -0 -0 -0 -0 -0 -0 -0 -0 -0 -0 -0 -0 -0 -0 -0 -0 -0 -0 -0 -0 -0 -0 -0 -0 -0 -0 -0
-0 -0 -0 -0 -0 -0 -0 -0 -0 -0 -0 -0 -0 -1 -2 -0 -0 -0 -0 -0 -0 -0 -0 -0 -0 -0 -0 -0 -0 -0 -0 -0 -0 -0 -0 -0 -0 -0 -0 -0 -0 -0 -0 -0 -0
-0 -0 -0 -0 -0 -0 -0 -0 -0 -0 -0 -0 -0 -0 -0 -2 -0 -0 -0 -1 -0 -0 -0 -0 -0 -0 -7 -0 -0 -0 -0 -0 -0 -0 -0 -0 -0 -0 -0 -0 -0 -0 -0 -0 -0
-0 -0 -0 -0 -0 -0 -0 -0 -0 -0 -0 -0 -0 -0 -0 -0 -2 -0 -0 -0 -0 -0 -0 -0 -0 -0 -0 -0 -0 -0 -0 -0 -0 -0 -0 -0 -0 -0 -0 -0 -0 -0 -0 -0 -0
-0 -0 -0 -0 -0 -0 -0 -0 -0 -0 -0 -0 -0 -0 -0 -0 -0 -0 -0 -0 -0 -0 -0 -0 -0 -0 -0 -0 -0 -0 -0 -0 -0 -0 -0 -0 -0 -0 -0 -0 -0 -0 -0 -0 -0
-0 -0 -0 -0 -0 -0 -0 -0 -0 -0 -0 -1 -0 -0 -0 -0 -0 -0 -0 -0 -0 -0 -0 -0 -0 -0 -0 -0 -0 -0 -0 -0 -0 -0 -0 -0 -0 -0 -0 -0 -0 -0 -0 -0 -0
-0 -0 -0 -0 -0 -0 -0 -0 -0 -0 -0 -0 -0 -0 -0 -0 -0 -0 -0 -0 -0 -0 -0 -0 -0 -0 -0 -0 -0 -0 -0 -0 -0 -0 -0 -0 -0 -0 -0 -0 -0 -0 -0 -0 -0
-1 -0 -0 -0 -0 -0 -0 -0 -0 -0 -0 -0 -0 -0 -0 -0 -0 -0 -0 -0 -0 -0 -0 -0 -0 -0 -0 -0 -0 -0 -0 -0 -0 -0 -0 -0 -0 -0 -0 -0 -0 -0 -0 -0 -0
Wind_Speed
39 40 40 40 41 41 41 40 40 39 38 37 36 36 35 36 37 32 26 21 15 12 8 10 12 16 18 20 21 23 28 32 27 23 20 18 20 16 15 11 10 9 13 7 13
41 41 41 42 42 42 42 41 40 39 38 37 36 35 35 35 37 38 27 19 12 9 6 8 14 15 20 23 22 24 29 28 24 23 19 16 18 17 18 12 13 9 8 6 12
41 42 42 43 43 43 43 42 41 39 38 36 35 34 34 34 34 30 19 14 11 10 8 7 13 15 25 24 25 27 36 30 25 25 23 20 21 20 22 20 14 10 3 7 11
44 44 44 45 44 44 43 43 42 39 37 35 34 32 31 27 31 21 22 13 9 9 10 9 9 17 25 27 29 33 32 35 29 22 21 24 23 24 26 25 23 16 6 10 13
47 47 47 47 47 46 45 44 42 39 37 34 32 27 26 29 31 23 17 9 6 9 10 10 10 13 25 27 27 33 34 33 34 27 26 25 25 27 27 27 23 14 8 11 11
49 50 50 49 49 47 46 44 41 39 37 32 27 19 23 34 24 22 20 13 12 13 14 14 16 14 24 25 29 25 35 32 31 32 29 28 28 25 28 25 21 15 11 12 14
50 51 51 51 50 49 46 45 42 38 32 26 18 15 25 21 21 18 17 18 17 17 18 18 20 14 16 21 22 27 30 35 34 30 28 28 33 29 29 22 21 20 23 16 14
52 53 53 52 51 49 48 45 42 31 28 23 13 16 32 22 23 26 20 20 21 20 23 20 18 19 19 17 17 22 29 36 34 32 31 29 40 29 25 24 24 25 23 23 21
54 54 54 53 51 48 47 47 33 27 24 17 19 22 34 22 25 24 20 21 17 19 21 18 18 21 18 18 21 21 29 32 33 29 33 33 37 32 19 24 27 23 25 23 26
56 56 55 53 49 46 46 40 27 24 23 21 23 28 27 26 26 23 19 20 17 16 19 21 22 24 24 21 26 24 27 26 32 31 33 38 39 33 24 27 28 26 24 27 26
57 56 55 51 46 42 43 34 36 28 30 33 37 34 36 28 24 23 17 20 21 20 24 22 26 28 24 24 27 26 25 27 24 22 31 38 37 39 28 28 28 27 26 23 29
56 56 54 49 43 38 36 36 35 33 43 39 41 40 40 41 34 28 18 22 25 26 22 22 30 26 27 26 26 23 24 25 22 22 28 32 37 36 30 30 29 27 28 27 22
56 55 50 46 35 35 34 37 35 29 36 38 29 28 27 25 34 32 24 26 29 29 28 29 26 28 26 25 26 27 27 26 26 22 27 31 36 37 40 32 31 30 28 27 26
56 53 45 42 31 37 32 39 32 22 31 32 24 21 24 25 30 33 26 26 31 35 29 35 27 26 28 29 27 29 26 26 26 26 30 26 37 37 37 38 33 31 29 27 28
54 48 40 37 33 35 33 33 25 18 27 31 27 23 33 24 29 19 23 30 33 31 31 32 32 26 27 27 24 29 23 24 23 27 28 27 32 32 31 37 38 29 29 29 28
52 44 36 35 32 31 30 24 18 22 22 28 27 29 23 20 22 24 23 23 26 27 31 33 27 30 29 28 24 21 19 21 22 24 37 31 29 28 27 33 34 29 24 29 29
50 37 36 33 37 30 25 22 27 27 34 31 31 29 23 21 19 17 21 21 26 34 33 30 27 23 27 25 23 21 20 23 28 30 33 24 28 22 21 22 25 27 24 25 26
44 32 37 33 34 27 23 25 32 27 30 34 31 22 20 22 18 17 19 23 21 26 33 33 36 26 22 28 26 26 24 25 31 33 27 20 30 23 19 15 14 15 17 17 18
35 32 42 38 34 25 26 39 30 25 33 32 25 21 21 22 20 19 16 21 22 22 29 32 35 26 24 24 26 28 32 28 26 25 27 25 22 17 14 13 12 11 14 16 17
33 32 45 40 30 29 32 32 28 25 27 28 24 22 22 22 19 19 22 20 25 25 27 27 35 28 28 27 29 32 29 32 30 30 30 27 25 23 19 16 13 12 11 14 16
33 35 44 36 30 35 36 29 24 27 29 27 26 23 22 22 20 18 20 22 24 27 24 27 30 28 29 33 33 30 33 36 35 33 35 28 28 17 17 15 14 13 13 14 15
35 39 41 32 41 32 35 28 26 26 29 24 25 24 23 23 22 20 21 21 23 24 25 24 28 32 28 24 28 30 36 36 37 35 36 33 24 15 14 14 14 13 13 14 14
33 33 35 36 39 37 30 32 23 27 27 28 27 24 26 24 24 22 23 24 24 22 21 25 26 32 30 27 23 29 29 31 34 32 36 36 27 15 14 14 14 13 12 13 14
31 36 32 37 34 33 31 30 29 21 21 27 26 25 27 26 24 25 26 25 27 25 23 21 25 29 34 29 29 30 30 31 36 40 35 36 21 20 19 18 16 15 14 14 14
31 32 30 35 35 31 29 28 29 27 21 25 24 29 29 28 30 27 30 30 28 23 25 24 29 29 32 33 33 33 33 31 32 33 37 31 27 21 20 19 18 16 15 15 15
30 31 28 26 28 29 28 28 27 25 19 19 25 33 32 31 30 35 34 32 29 28 30 27 30 31 32 29 33 39 37 33 31 31 30 25 24 20 18 17 17 17 16 16 17
26 24 25 25 28 28 27 25 24 23 17 18 23 35 33 30 33 36 37 37 39 38 34 31 30 31 36 32 34 41 38 38 34 30 30 32 27 20 20 19 19 18 17 17 18
Wind_Direction
341 339 335 331 327 324 321 318 314 310 309 308 306 304 301 299 293 293 296 300 309 313 313 307 281 267 264 264 267 266 264 261 263 268 275 273 271 276 278 280 287 296 294 316 118
343 340 336 333 330 327 324 321 318 314 310 306 305 305 303 301 292 283 292 295 295 294 293 286 277 266 259 262 264 256 260 262 268 268 274 272 273 271 267 264 275 284 304 82 122
342 339 335 332 330 327 324 321 319 317 314 312 308 305 304 302 293 291 302 291 269 276 277 276 285 272 261 262 258 259 257 260 264 267 268 270 270 270 262 259 264 264 245 130 140
342 339 336 333 330 327 323 321 319 317 316 315 313 309 304 301 286 302 303 294 266 260 271 262 266 267 264 260 259 259 260 257 259 266 268 266 271 264 258 255 261 262 193 153 151
344 341 337 335 333 329 326 323 320 321 320 316 315 315 308 290 282 298 308 305 271 257 250 254 254 265 265 267 261 259 258 258 257 261 263 267 265 263 260 257 264 254 197 167 175
345 342 339 336 335 334 331 331 330 329 323 320 317 316 304 287 298 290 280 275 266 257 258 260 271 267 278 270 260 271 256 258 259 257 260 261 264 263 260 258 261 248 223 183 174
343 342 340 337 335 333 333 330 331 332 332 330 324 312 296 291 303 297 280 264 263 255 260 262 270 267 280 278 274 267 263 255 254 256 257 260 259 260 258 259 258 250 244 230 201
344 345 344 340 335 332 332 333 333 338 338 338 340 314 294 306 295 275 278 267 260 258 265 264 266 265 271 283 280 268 264 256 254 253 255 255 254 257 259 255 255 251 246 236 231
346 345 345 343 340 338 338 334 341 345 346 351 329 312 297 308 289 279 256 264 255 253 260 261 259 261 263 264 268 266 265 258 255 253 252 251 254 255 255 254 252 251 244 236 235
349 347 346 346 346 344 341 344 348 343 341 331 322 305 298 295 292 284 263 252 249 246 250 249 253 255 254 249 256 264 262 266 256 254 252 251 253 253 257 253 252 249 245 239 238
351 351 348 350 353 352 349 351 344 334 332 314 303 294 292 303 291 278 267 238 245 240 240 238 243 240 244 251 261 267 264 266 268 266 257 252 254 250 252 254 252 248 244 242 241
353 353 351 354 355 359 358 356 350 335 319 312 298 288 283 278 276 270 260 235 233 234 233 244 243 248 253 252 254 261 262 264 270 269 263 257 253 252 248 249 252 249 246 242 240
355 354 356 358 2 2 360 358 351 344 327 319 309 298 293 274 263 262 253 239 236 236 230 243 260 248 248 247 248 254 258 262 265 269 265 262 256 250 247 254 253 252 250 244 239
356 356 2 3 7 360 1 355 356 2 336 329 313 303 301 281 267 255 256 244 247 240 240 248 255 248 243 246 246 251 256 261 263 264 262 256 258 252 249 248 249 250 249 247 242
358 360 6 10 5 5 359 358 7 16 344 328 317 304 298 267 279 264 257 245 248 244 236 246 244 246 242 241 243 255 257 255 260 260 265 262 259 259 251 247 246 249 251 248 244
0 4 11 12 10 7 3 8 26 9 352 328 321 304 296 285 282 272 245 251 254 245 242 248 255 248 247 249 242 253 248 253 260 261 256 256 256 258 259 253 250 248 257 251 248
3 15 16 15 8 5 13 23 13 12 342 322 307 302 293 285 287 279 245 243 247 241 239 240 247 251 248 240 236 235 226 246 250 251 256 256 254 264 271 271 261 257 262 255 250
9 20 17 19 12 17 26 22 17 14 351 313 307 302 302 295 286 291 254 248 267 256 247 240 239 239 242 234 235 226 226 246 248 249 249 258 257 258 274 285 278 265 262 261 258
17 23 17 15 18 30 28 22 23 20 348 324 308 300 302 312 282 273 271 262 267 269 248 247 242 241 249 245 239 229 232 246 258 262 249 253 262 272 272 276 280 277 268 263 266
21 23 16 15 24 35 31 31 31 29 6 341 322 311 293 303 300 278 270 283 271 277 263 256 246 250 243 246 247 244 237 241 248 246 249 251 252 259 253 264 273 280 283 273 273
23 21 15 19 34 34 28 31 32 26 5 348 324 304 299 295 297 295 287 275 292 282 267 262 250 249 246 240 238 242 240 241 249 251 247 252 252 260 254 263 269 281 292 290 282
22 18 17 26 27 30 27 30 33 30 8 358 326 307 300 297 292 287 288 288 299 297 269 268 254 247 244 252 249 249 243 241 246 245 250 253 259 256 256 264 271 280 291 298 298
19 20 24 29 22 24 29 28 33 29 29 355 335 319 304 299 281 288 290 292 300 295 287 276 256 244 244 249 251 246 249 249 251 254 246 246 254 248 254 261 270 275 288 299 304
17 12 19 26 28 25 24 24 26 36 35 8 345 322 313 295 294 285 289 289 292 286 293 282 262 252 246 250 256 248 251 254 250 246 249 247 244 242 247 255 264 272 285 290 297
18 16 18 12 18 20 23 22 22 24 29 17 352 329 313 299 290 284 290 290 290 287 290 284 262 262 260 259 258 256 255 256 251 251 248 249 245 241 252 256 263 272 279 286 292
14 13 15 16 16 16 18 19 18 17 23 21 4 323 311 298 291 285 288 286 278 282 286 281 263 269 264 260 260 256 256 256 255 253 253 249 244 256 257 259 263 269 276 282 290
19 21 16 13 11 11 12 11 11 13 21 13 357 324 314 309 299 291 287 283 277 275 277 276 271 267 258 264 265 256 254 252 254 255 255 250 257 249 254 258 262 267 275 281 288